Tracking 34305 objects as of 6-Jun-2026
HD Live streaming from Space Station
objects crossing your sky now

THORAD AGENA D DEB

Track THORAD AGENA D DEB now!
10-day predictions


NORAD ID: 10136
Int'l Code: 1970-025NQ
Perigee: 1,070.6 km
Apogee: 1,073.2 km
Inclination: 100.2 °
Period: 106.5 minutes
Semi major axis: 7442 km
RCS: 0.0546 m2 (small)
Launch date: April 8, 1970
Source: United States (US)
Launch site: AIR FORCE WESTERN TEST RANGE (AFWTR)

Note: This is SATELLITE DEBRIS
Your satellite tracking list
Your tracking list is empty




NASA's NSSDC Master Catalog

Two Line Element Set (TLE):
1 10136U 70025NQ  26156.77267657  .00000021  00000-0  10345-3 0  9991
2 10136 100.1639 132.5597 0001736  50.1406  70.1526 13.52034036768951
Source of the keplerian elements: AFSPC